Regional Weather Roundup
Issued by NWS

Home | Current Version | Previous Version | Graphics & Text | Print | Product List | Glossary On
Versions: 1 2 3 4 5 6 7 8 9 10 11 12 13 14 15 16 17 18 19 20 21 22 23 24 25 26 27 28 29 30 31 32 33 34 35 36 37 38 39 40 41 42 43 44 45 46 47 48 49 50
000
ASUS43 KFSD 190110
RWRSD

WEATHER ROUNDUP FOR SOUTH DAKOTA
NATIONAL WEATHER SERVICE SIOUX FALLS SD
800 PM CDT SAT APR 18 2015

NOTE: "FAIR" INDICATES FEW OR NO CLOUDS BELOW 12,000 FEET WITH NO
SIGNIFICANT WEATHER AND/OR OBSTRUCTIONS TO VISIBILITY.


SDZ001>005-009-010-012>017-190200-
NORTHWEST AND NORTH CENTRAL SOUTH DAKOTA

CITY           SKY/WX    TMP DP  RH WIND       PRES   REMARKS
BUFFALO          N/A     49  43  80 N12       29.89R
FAITH            N/A     45  43  93 NE12      29.92S
MOBRIDGE       LGT RAIN  50  44  80 N16       29.85F
$$

SDZ012>016-024>037-041>051-057-063-072>074-190200-
SOUTHWEST AND SOUTH CENTRAL SOUTH DAKOTA

CITY           SKY/WX    TMP DP  RH WIND       PRES   REMARKS
RAPID CTY ARPT CLOUDY    46  43  89 NW10      29.93R
PIERRE         CLOUDY    50  49  96 N9        29.84F
CUSTER         CLOUDY    40  36  86 N6        29.95R
ELLSWORTH AFB  MIX PCPN  45  45 100 NW10      29.93
PHILIP         CLOUDY    51  42  71 N12       29.88R
PINE RIDGE     CLOUDY    50  43  77 NW12      29.91R
SPEARFISH      HVY RAIN  45  43  93 NW16      29.97R VSB 1
WINNER         CLOUDY    58  53  84 N9        29.83R
$$

SDZ004>011-016>023-039-040-190200-
NORTHEAST SOUTH DAKOTA

CITY           SKY/WX    TMP DP  RH WIND       PRES   REMARKS
ABERDEEN       LGT RAIN  57  49  74 S8        29.85F
WATERTOWN      LGT RAIN  57  53  86 E5        29.84F
BROOKINGS      CLOUDY    57  55  94 SE5       29.84F
SISSETON         N/A     67  31  26 SE12      29.83F
$$

SDZ017-020-022-023-036>040-048>070-190200-
SOUTHEAST SOUTH DAKOTA

CITY           SKY/WX    TMP DP  RH WIND       PRES   REMARKS
SIOUX FALLS    CLOUDY    57  54  89 E8        29.80F
HURON          CLOUDY    55  54  96 E5        29.82F FOG
CHAMBERLAIN    CLOUDY    55  53  94 N3        29.82F
MITCHELL       CLOUDY    58  56  93 NE6       29.82F FOG
YANKTON        CLOUDY    59  55  88 E6        29.78F
$$

ABBREVIATIONS USED IN REMARKS
   TC - TEMPERATURE IN CELSIUS
  WCI - WIND CHILL INDEX
   HX - HEAT INDEX
  VSB - VISIBILITY



USA.gov is the U.S. government's official web portal to all federal, state and local government web resources and services.